| time (UTC) | temp F | wind direction | speed knots | gust knots | rain 1hr in | rain 24hr in | rain mn in | humidity % | barometer mb |
| 20260831230043 | 74 | 27 | 0.9 | 5.2 | 0.00 | 0.00 | 0.00 | 59 | 1009.7 |
| 20260831224540 | 73 | 10 | 1.7 | 7.0 | 0.00 | 0.00 | 0.00 | 59 | 1009.8 |
| 20260831223039 | 73 | 20 | 2.6 | 5.2 | 0.00 | 0.00 | 0.00 | 62 | 1010.1 |
| 20260831221537 | 73 | 331 | 0.9 | 6.1 | 0.00 | 0.00 | 0.00 | 64 | 1010.2 |
| 20260831220036 | 74 | 27 | 1.7 | 7.0 | 0.00 | 0.00 | 0.00 | 60 | 1010.3 |
| 20260831214533 | 73 | 41 | 1.7 | 6.1 | 0.00 | 0.00 | 0.00 | 63 | 1010.6 |
| 20260831213034 | 71 | 44 | 1.7 | 7.8 | 0.00 | 0.00 | 0.00 | 69 | 1010.7 |
| 20260831211533 | 73 | 103 | 0.9 | 4.3 | 0.00 | 0.00 | 0.00 | 66 | 1010.9 |
| 20260831210130 | 73 | 271 | 0.9 | 5.2 | 0.00 | 0.00 | 0.00 | 62 | 1011.1 |
| 20260831204534 | 74 | 123 | 0.9 | 6.1 | 0.00 | 0.00 | 0.00 | 63 | 1011.1 |
| 20260831203028 | 73 | 55 | 1.7 | 5.2 | 0.00 | 0.00 | 0.00 | 63 | 1011.3 |
| 20260831201524 | 72 | 85 | 1.7 | 7.0 | 0.00 | 0.00 | 0.00 | 62 | 1011.5 |
| 20260831200024 | 74 | 142 | 1.7 | 5.2 | 0.00 | 0.00 | 0.00 | 58 | 1011.8 |
| 20260831194519 | 74 | 19 | 0.0 | 5.2 | 0.00 | 0.00 | 0.00 | 55 | 1011.9 |
| 20260831193023 | 72 | 5 | 2.6 | 7.8 | 0.00 | 0.00 | 0.00 | 58 | 1012.2 |
| 20260831191515 | 72 | 13 | 1.7 | 3.5 | 0.00 | 0.00 | 0.00 | 55 | 1012.3 |
| 20260831190011 | 70 | 18 | 3.5 | 7.8 | 0.00 | 0.00 | 0.00 | 59 | 1012.7 |
| 20260831184510 | 70 | 348 | 0.9 | 8.7 | 0.00 | 0.00 | 0.00 | 62 | 1012.8 |
| 20260831183006 | 70 | 46 | 1.7 | 5.2 | 0.00 | 0.00 | 0.00 | 63 | 1013.0 |
| 20260831181503 | 68 | 5 | 4.3 | 7.8 | 0.00 | 0.00 | 0.00 | 63 | 1013.2 |
| 20260831180100 | 67 | 349 | 5.2 | 8.7 | 0.00 | 0.00 | 0.00 | 64 | 1013.3 |
| 20260831174556 | 65 | 351 | 2.6 | 10.4 | 0.00 | 0.00 | 0.00 | 68 | 1013.5 |
| 20260831173053 | 65 | 355 | 5.2 | 9.6 | 0.00 | 0.00 | 0.00 | 69 | 1013.6 |
| 20260831171549 | 64 | 360 | 0.9 | 10.4 | 0.00 | 0.00 | 0.00 | 71 | 1013.6 |
| 20260831170045 | 63 | 13 | 1.7 | 7.0 | 0.00 | 0.00 | 0.00 | 73 | 1013.7 |
| 20260831164541 | 61 | 92 | 1.7 | 4.3 | 0.00 | 0.00 | 0.00 | 77 | 1013.7 |
| 20260831163038 | 60 | 329 | 1.7 | 8.7 | 0.00 | 0.00 | 0.00 | 79 | 1013.7 |
| 20260831161535 | 58 | 17 | 0.9 | 4.3 | 0.00 | 0.00 | 0.00 | 82 | 1013.7 |
| 20260831160035 | 57 | 325 | 1.7 | 5.2 | 0.00 | 0.00 | 0.00 | 84 | 1014.0 |
| 20260831154527 | 56 | 342 | 2.6 | 4.3 | 0.00 | 0.00 | 0.00 | 86 | 1014.2 |
| 20260831153022 | 55 | 355 | 1.7 | 4.3 | 0.00 | 0.00 | 0.00 | 88 | 1014.1 |
| 20260831151522 | 54 | 61 | 0.0 | 4.3 | 0.00 | 0.00 | 0.00 | 88 | 1014.2 |
| 20260831150021 | 54 | 347 | 1.7 | 3.5 | 0.00 | 0.00 | 0.00 | 89 | 1014.0 |
| 20260831144520 | 53 | 345 | 1.7 | 4.3 | 0.00 | 0.00 | 0.00 | 91 | 1014.0 |
| 20260831143019 | 53 | 355 | 1.7 | 4.3 | 0.00 | 0.00 | 0.00 | 91 | 1014.0 |
| 20260831141518 | 51 | 326 | 1.7 | 3.5 | 0.00 | 0.00 | 0.00 | 93 | 1013.9 |
| 20260831140017 | 50 | 355 | 0.0 | 1.7 | 0.00 | 0.00 | 0.00 | 92 | 1014.0 |
| 20260831134515 | 50 | 355 | 0.9 | 2.6 | 0.00 | 0.00 | 0.00 | 91 | 1014.0 |
| 20260831133017 | 50 | 355 | 0.0 | 0.9 | 0.00 | 0.00 | 0.00 | 90 | 1014.1 |
| 20260831131520 | 51 | 355 | 0.0 | 1.7 | 0.00 | 0.00 | 0.00 | 91 | 1014.0 |
| 20260831130009 | 51 | 355 | 0.0 | 1.7 | 0.00 | 0.00 | 0.00 | 90 | 1014.2 |
| 20260831124508 | 52 | 351 | 1.7 | 2.6 | 0.00 | 0.00 | 0.00 | 90 | 1014.2 |
| 20260831123006 | 52 | 355 | 1.7 | 2.6 | 0.00 | 0.00 | 0.00 | 89 | 1014.4 |
| 20260831121513 | 53 | 355 | 0.0 | 2.6 | 0.00 | 0.00 | 0.00 | 88 | 1014.4 |
| 20260831120007 | 53 | 355 | 1.7 | 4.3 | 0.00 | 0.00 | 0.00 | 88 | 1014.6 |
| 20260831114505 | 53 | 336 | 1.7 | 3.5 | 0.00 | 0.00 | 0.00 | 89 | 1014.6 |
| 20260831113001 | 53 | 355 | 0.9 | 2.6 | 0.00 | 0.00 | 0.00 | 88 | 1014.7 |
| 20260831111602 | 53 | 355 | 1.7 | 2.6 | 0.00 | 0.00 | 0.00 | 89 | 1014.9 |
| 20260831110106 | 53 | 355 | 0.9 | 2.6 | 0.00 | 0.00 | 0.00 | 88 | 1014.9 |
| 20260831104558 | 52 | 351 | 2.6 | 3.5 | 0.00 | 0.00 | 0.00 | 88 | 1015.0 |
| 20260831103055 | 52 | 317 | 1.7 | 2.6 | 0.00 | 0.00 | 0.00 | 89 | 1015.1 |
| 20260831101554 | 52 | 182 | 0.9 | 1.7 | 0.00 | 0.00 | 0.00 | 89 | 1015.2 |
| 20260831100051 | 52 | 182 | 0.0 | 0.0 | 0.00 | 0.00 | 0.00 | 89 | 1015.4 |
| 20260831094550 | 52 | 182 | 0.9 | 2.6 | 0.00 | 0.00 | 0.00 | 89 | 1015.4 |
| 20260831093049 | 53 | 182 | 0.9 | 2.6 | 0.00 | 0.00 | 0.00 | 89 | 1015.6 |
| 20260831091554 | 53 | 182 | 1.7 | 2.6 | 0.00 | 0.00 | 0.00 | 89 | 1016.0 |
| 20260831090043 | 53 | 182 | 0.9 | 1.7 | 0.00 | 0.00 | 0.00 | 89 | 1016.2 |
| 20260831084542 | 53 | 182 | 0.0 | 0.0 | 0.00 | 0.00 | 0.00 | 89 | 1016.3 |
| 20260831083042 | 53 | 182 | 0.0 | 0.0 | 0.00 | 0.00 | 0.00 | 88 | 1016.4 |
| 20260831081539 | 53 | 182 | 0.0 | 0.0 | 0.00 | 0.00 | 0.00 | 88 | 1016.5 |
| 20260831080037 | 54 | 182 | 0.0 | 0.0 | 0.00 | 0.00 | 0.00 | 88 | 1016.6 |
| 20260831074535 | 54 | 182 | 0.0 | 0.9 | 0.00 | 0.00 | 0.00 | 88 | 1016.7 |
| 20260831073031 | 54 | 182 | 0.0 | 0.9 | 0.00 | 0.00 | 0.00 | 87 | 1017.0 |
| 20260831071533 | 54 | 182 | 0.0 | 0.0 | 0.00 | 0.00 | 0.00 | 86 | 1017.0 |
| 20260831070030 | 54 | 182 | 0.0 | 0.9 | 0.00 | 0.00 | 0.00 | 86 | 1017.0 |
| 20260831064528 | 55 | 182 | 0.0 | 0.0 | 0.00 | 0.00 | 0.00 | 86 | 1017.0 |
| 20260831063027 | 55 | 182 | 0.0 | 0.0 | 0.00 | 0.00 | 0.00 | 85 | 1017.2 |
| 20260831061526 | 55 | 182 | 0.0 | 0.9 | 0.00 | 0.00 | 0.00 | 86 | 1017.3 |
| 20260831060026 | 55 | 182 | 0.0 | 0.9 | 0.00 | 0.00 | 0.00 | 85 | 1017.4 |
| 20260831054524 | 56 | 182 | 0.0 | 0.9 | 0.00 | 0.00 | 0.00 | 85 | 1017.5 |
| 20260831053023 | 56 | 182 | 0.0 | 0.9 | 0.00 | 0.00 | 0.00 | 85 | 1017.6 |
| 20260831051524 | 56 | 182 | 0.0 | 0.0 | 0.00 | 0.00 | 0.00 | 85 | 1017.6 |
| 20260831050022 | 57 | 182 | 0.0 | 1.7 | 0.00 | 0.00 | 0.00 | 85 | 1017.8 |
| 20260831044519 | 57 | 182 | 0.0 | 0.9 | 0.00 | 0.00 | 0.00 | 84 | 1017.8 |
| 20260831043018 | 58 | 182 | 0.0 | 0.0 | 0.00 | 0.00 | 0.00 | 83 | 1018.1 |
| 20260831041541 | 59 | 182 | 0.0 | 0.0 | 0.00 | 0.00 | 0.00 | 81 | 1018.1 |
| 20260831040018 | 59 | 182 | 0.0 | 0.9 | 0.00 | 0.00 | 0.00 | 80 | 1018.2 |
| 20260831034517 | 60 | 182 | 0.0 | 0.0 | 0.00 | 0.00 | 0.00 | 78 | 1018.1 |
| 20260831033022 | 61 | 182 | 0.0 | 0.0 | 0.00 | 0.00 | 0.00 | 75 | 1017.9 |
| 20260831031515 | 62 | 182 | 0.0 | 0.0 | 0.00 | 0.00 | 0.00 | 74 | 1017.9 |
| 20260831030016 | 63 | 182 | 0.0 | 0.0 | 0.00 | 0.00 | 0.00 | 72 | 1017.9 |
| 20260831024515 | 63 | 182 | 0.0 | 0.0 | 0.00 | 0.00 | 0.00 | 74 | 1017.9 |
| 20260831023014 | 64 | 182 | 0.0 | 0.0 | 0.00 | 0.00 | 0.00 | 73 | 1018.0 |
| 20260831021519 | 64 | 182 | 0.0 | 1.7 | 0.00 | 0.00 | 0.00 | 72 | 1018.1 |
| 20260831020014 | 64 | 182 | 0.0 | 2.6 | 0.00 | 0.00 | 0.00 | 71 | 1018.1 |
| 20260831014519 | 64 | 213 | 0.0 | 1.7 | 0.00 | 0.00 | 0.00 | 71 | 1018.1 |
| 20260831013010 | 64 | 212 | 0.0 | 2.6 | 0.00 | 0.00 | 0.00 | 69 | 1018.2 |
| 20260831011512 | 64 | 211 | 0.0 | 1.7 | 0.00 | 0.00 | 0.00 | 70 | 1018.3 |
| 20260831010009 | 64 | 160 | 0.0 | 4.3 | 0.00 | 0.00 | 0.00 | 69 | 1018.5 |
| 20260831004508 | 64 | 176 | 0.9 | 7.0 | 0.00 | 0.00 | 0.00 | 68 | 1018.5 |
| 20260831003007 | 64 | 161 | 0.0 | 4.3 | 0.00 | 0.00 | 0.00 | 69 | 1018.6 |
| 20260831001507 | 65 | 155 | 0.0 | 3.5 | 0.00 | 0.00 | 0.00 | 70 | 1018.7 |
| 20260831000006 | 65 | 213 | 0.0 | 2.6 | 0.00 | 0.00 | 0.00 | 70 | 1019.0 |
| 20260830234510 | 65 | 217 | 0.0 | 4.3 | 0.00 | 0.00 | 0.00 | 68 | 1019.1 |
| 20260830233014 | 65 | 198 | 0.0 | 1.7 | 0.00 | 0.00 | 0.00 | 68 | 1019.1 |
| 20260830231504 | 65 | 188 | 0.9 | 4.3 | 0.00 | 0.00 | 0.00 | 67 | 1019.3 |